K4FB Weather Reports


time (UTC)temp
C
wind
direction
speed
KPH
gust
KPH
rain 1hr
cm
rain 24hr
cm
rain mn
cm
humidity
%
barometer
mb
20200531075003 20 0 0.0 0.0 0.00 0.00 0.00 90 1014.5
20200531055003 21 0 0.0 0.0 0.00 0.00 0.00 87 1015.2
20200531052003 21 0 0.0 0.0 0.00 0.00 0.00 85 1015.7
20200531044003 21 0 0.0 0.0 0.00 0.00 0.00 83 1016.3
20200531034003 22 102 1.6 6.4 0.00 0.00 0.00 82 1016.4
20200531031003 22 134 1.6 6.4 0.00 0.00 0.00 82 1016.6
20200531014003 24 129 1.6 6.4 0.00 0.00 0.00 82 1016.7
20200531000004 26 158 3.2 12.9 0.00 0.00 0.00 73 1014.6
20200530231003 27 163 6.4 14.5 0.00 0.00 0.00 71 1013.6
20200530225003 29 127 4.8 12.9 0.00 0.00 0.00 70 1013.4
20200530223004 31 175 1.6 6.4 0.00 0.00 0.00 66 1012.5
20200530191003 33 346 1.6 3.2 0.00 0.00 0.00 58 1014.0
20200530190003 34 338 1.6 8.0 0.00 0.00 0.00 56 1014.1
20200530174003 32 318 1.6 6.4 0.00 0.00 0.00 65 1015.0
20200530163004 31 0 0.0 3.2 0.00 0.00 0.00 67 1015.7
20200530145004 31 167 4.8 11.3 0.00 0.00 0.00 70 1016.2
20200530142003 30 173 6.4 12.9 0.00 0.00 0.00 71 1016.1
20200530114004 22 103 1.6 4.8 0.00 0.00 0.00 94 1016.5
20200530112003 21 0 0.0 1.6 0.00 0.00 0.00 94 1016.1
20200530102004 21 0 0.0 0.0 0.00 0.00 0.00 93 1015.8
20200530100003 21 0 0.0 0.0 0.00 0.00 0.00 93 1015.7
20200530094004 21 0 0.0 0.0 0.00 0.00 0.00 92 1015.7
20200530091003 21 0 0.0 0.0 0.00 0.00 0.00 91 1015.5